Overview Statistics Trail Chart Weather Telemetry Raw packets
 

This is the latest recevied weather packets stored in our database for station/object 4S6DRJ-13. If no packets are shown the sender has not sent any weather packets the latest 10 day(s).

<< 88 89 90 91 92 93 94 >>
Time Temp. Humidity Pressure Rain* Wind** Luminosity Snow
1788321584 30.56° C 73% 1010.6 hPa 0 mm 2.24 m/s, 184° 933 W/m² -
1788321523 30.56° C 74% 1010.8 hPa 0 mm 1.79 m/s, 207° 990 W/m² -
1788321462 30.56° C 74% 1010.5 hPa 0 mm 0.45 m/s, 256° 922 W/m² -
1788321401 30.56° C 74% 1010.6 hPa 0 mm 1.79 m/s, 23° 946 W/m² -
1788321340 30.56° C 75% 1010.7 hPa 0 mm 0.45 m/s, 68° 924 W/m² -
1788321279 30.56° C 75% 1010.6 hPa 0 mm 0.45 m/s, 215° 937 W/m² -
1788321219 30° C 74% 1010.6 hPa 0 mm 1.34 m/s, 241° 274 W/m² -
1788321158 30° C 74% 1010.6 hPa 0 mm 1.79 m/s, 230° 852 W/m² -
1788321096 30° C 74% 1010.8 hPa 0 mm 1.34 m/s, 250° 1100 W/m² -
1788321035 30° C 74% 1010.7 hPa 0 mm 1.34 m/s, 235° 931 W/m² -
1788320974 30° C 75% 1010.7 hPa 0 mm 2.24 m/s, 266° 893 W/m² -
1788320914 30° C 75% 1010.7 hPa 0 mm 1.79 m/s, 165° 884 W/m² -
1788320853 30° C 75% 1010.5 hPa 0 mm 0.89 m/s, 176° 889 W/m² -
1788320811 30° C 75% 1010.5 hPa 0 mm 2.24 m/s, 234° 898 W/m² -
1788320730 30° C 74% 1010.6 hPa 0 mm 1.79 m/s, 258° 882 W/m² -
1788320670 30° C 74% 1010.6 hPa 0 mm 1.79 m/s, 242° 890 W/m² -
1788320608 30° C 75% 1010.5 hPa 0 mm 1.79 m/s, 251° 854 W/m² -
1788320547 30° C 74% 1010.5 hPa 0 mm 2.68 m/s, 274° 848 W/m² -
1788320486 30° C 74% 1010.6 hPa 0 mm 2.68 m/s, 250° 849 W/m² -
1788320425 30° C 74% 1010.6 hPa 0 mm 1.79 m/s, 232° 812 W/m² -
1788320364 30° C 74% 1010.5 hPa 0 mm 1.34 m/s, 218° 835 W/m² -
1788320303 30° C 75% 1010.4 hPa 0 mm 1.34 m/s, 223° 842 W/m² -
1788320242 30° C 76% 1010.6 hPa 0 mm 1.79 m/s, 232° 850 W/m² -
1788320181 30° C 76% 1010.6 hPa 0 mm 0.89 m/s, 166° 821 W/m² -
1788320120 29.44° C 77% 1010.5 hPa 0 mm 1.34 m/s, 199° 801 W/m² -

* Rain latest hour (hover to see other rain measurements)
** Current wind speed in m/s (hover to see current wind gust speed)